Madison, WI

8:32 PM CST on November 16, 2019 (GMT -0600)
Dane County Regional-Truax

Weather History for KMSN - June, 2019

Change the Weather History Date:

Wednesday, June 5, 2019

  Actual Average Record
Temperature  
Mean Temperature 72 °F 64 °F  
Max Temperature 82 °F 75 °F 92 °F (1934)
Min Temperature 62 °F 53 °F 35 °F (1982)
Degree Days  
Heating Degree Days 0 4  
Month to date heating degree days 14 21  
Since 1 June heating degree days 14 21  
Since 1 July heating degree days 7473 7294  
Cooling Degree Days 7 2  
Month to date cooling degree days 7 10  
Year to date cooling degree days 27 40  
Since 1 June cooling degree days 7 10  
Growing Degree Days 22 (Base 50)    
Moisture  
Dew Point 63 °F    
Average Humidity 74    
Maximum Humidity 93    
Minimum Humidity 54    
Precipitation  
Precipitation 0.03 in 0.15 in 3.67 in (1963)
Month to date precipitation 1.03 0.74  
Year to date precipitation 16.84 12.57  
Snow  
Snow 0.00 in 0.00 in 0.00 in (2018)
Month to date snowfall 0.0 0.0  
Since 1 June snowfall 0.0 0.0  
Since 1 July snowfall 57.2 50.9  
Snow Depth 0.00 in    
Sea Level Pressure  
Sea Level Pressure 29.73 in    
Wind  
Wind Speed 5 mph (NNW)    
Max Wind Speed 15 mph    
Max Gust Speed 27 mph    
Visibility 10 miles    
Events Rain    
T = Trace of Precipitation, MM = Missing Value Source: NWS Daily Summary

Daily Weather History Graph

Daily Weather History Graph

Search for Another Location

Airport or City:

Astronomy

Jun. 05, 2019 Rise Set
Actual Time 5:18 AM CDT 8:33 PM CDT
Civil Twilight 4:44 AM CDT 9:08 PM CDT
Nautical Twilight 3:59 AM CDT 9:53 PM CDT
Astronomical Twilight 3:04 AM CDT 10:48 PM CDT
Moon 7:24 AM CDT (6/5) 10:59 PM CDT (6/5)
Length of Visible Light 16h 24m
Length of Day
15h 14m
Waxing Crescent, 7% of the Moon is Illuminated
Jun 5
Waxing Crescent
Jun 10
First Quarter
Jun 17
Full
Jun 25
Last Quarter
Jul 2
New

Hourly Weather History & Observations

Time (CDT) Temp. Heat Index Dew Point Humidity Pressure Visibility Wind Dir Wind Speed Gust Speed Precip Events Conditions
12:53 AM 63.0 °F - 62.1 °F 97% 29.70 in 9.0 mi Calm Calm - 0.01 in   Scattered Clouds
1:53 AM 64.0 °F - 62.1 °F 93% 29.68 in 10.0 mi SSW 4.6 mph - N/A   Partly Cloudy
2:53 AM 64.9 °F - 62.1 °F 90% 29.67 in 10.0 mi SW 3.5 mph - 0.00 in Rain Light Rain
3:53 AM 64.9 °F - 63.0 °F 93% 29.71 in 10.0 mi SW 4.6 mph - 0.03 in Rain Light Rain
4:53 AM 64.9 °F - 62.1 °F 90% 29.70 in 10.0 mi Variable 4.6 mph - 0.00 in   Clear
5:53 AM 64.0 °F - 61.0 °F 90% 29.66 in 10.0 mi Calm Calm - N/A   Mostly Cloudy
6:53 AM 64.9 °F - 62.1 °F 90% 29.70 in 10.0 mi Variable 3.5 mph - N/A   Mostly Cloudy
7:53 AM 66.0 °F - 62.1 °F 87% 29.70 in 10.0 mi NNW 3.5 mph - N/A   Mostly Cloudy
8:53 AM 68.0 °F - 63.0 °F 84% 29.71 in 10.0 mi Variable 5.8 mph - N/A   Mostly Cloudy
9:53 AM 71.1 °F - 63.0 °F 75% 29.71 in 10.0 mi SW 4.6 mph - N/A   Mostly Cloudy
10:53 AM 73.9 °F - 63.0 °F 68% 29.72 in 10.0 mi Variable 5.8 mph - N/A   Mostly Cloudy
11:53 AM 77.0 °F - 64.0 °F 64% 29.72 in 10.0 mi Variable 4.6 mph - N/A   Mostly Cloudy
12:53 PM 79.0 °F - 64.0 °F 60% 29.72 in 10.0 mi Variable 6.9 mph - N/A   Mostly Cloudy
1:53 PM 81.0 °F 82.2 °F 63.0 °F 54% 29.72 in 10.0 mi NNW 10.4 mph - N/A   Mostly Cloudy
2:53 PM 81.0 °F 82.5 °F 64.0 °F 56% 29.74 in 10.0 mi NNE 13.8 mph - N/A   Mostly Cloudy
3:53 PM 81.0 °F 82.2 °F 63.0 °F 54% 29.75 in 10.0 mi NNE 11.5 mph - N/A   Mostly Cloudy
4:53 PM 81.0 °F 81.9 °F 62.1 °F 52% 29.75 in 10.0 mi North 5.8 mph - N/A   Partly Cloudy
5:53 PM 80.1 °F 81.2 °F 62.1 °F 54% 29.74 in 10.0 mi NNE 9.2 mph - N/A   Partly Cloudy
6:53 PM 80.1 °F 81.2 °F 62.1 °F 54% 29.74 in 10.0 mi North 5.8 mph - N/A   Partly Cloudy
7:53 PM 77.0 °F - 63.0 °F 62% 29.77 in 10.0 mi Calm Calm - N/A   Partly Cloudy
8:53 PM 71.1 °F - 64.0 °F 78% 29.76 in 10.0 mi Calm Calm - N/A   Partly Cloudy
9:53 PM 68.0 °F - 64.0 °F 87% 29.79 in 10.0 mi Calm Calm - N/A   Clear
10:53 PM 69.1 °F - 63.0 °F 81% 29.81 in 10.0 mi Calm Calm - N/A   Clear
11:53 PM 66.9 °F - 63.0 °F 87% 29.82 in 10.0 mi ESE 6.9 mph - N/A   Mostly Cloudy